www.pogodaiklimat.ru

Погода и климат >> Архив погоды >> Бангладеш >> Chittagong


ПОГОДА в Chittagong

  • Прогноз погоды в Chittagong
  • Монитор погоды в Chittagong
  • Климат города

АРХИВ ПОГОДЫ в Chittagong

Время (UTC), дата Ветер
(напр.,м/с)
 
Видим.   Явления Облачность Т
(С)
Тd
(С)
f
(%)
Тe
(С)
Тes
(С)
Комфортность P
(гПа)
Po
(гПа)
Тmin
(С)
Tmax
(С)
R
(мм)
R24
(мм)
S
(см)
21 10.10 штиль 0 4000 м слабый дождь 10/5 270 м
[Cb calv As op]
+24.0 +23.0 94 +32 +32 очень
душно
1010.3 1009.7
00 11.10 В 3 4000 м слабый дождь 10/5 270 м
[Cb calv As op]
+23.9 +23.0 95 +32 +32 очень
душно
1010.5 1009.9 8
03 11.10 СВ 2 3500 м слабый дождь 10/4 240 м
[Cb calv As op]
+23.8 +23.0 95 +32 +33 очень
душно
1012.4 1011.8 +23.5
06 11.10 штиль 0 2500 м слабый дождь 10/8 210 м
[Cb calv As op]
+24.3 +24.0 98 +33 +34 очень
душно
1012.2 1011.5 27
15 11.10 штиль 0 4000 м 10/5 300 м
[Cb calv As op]
+24.2 +23.0 93 +32 +32 очень
душно
1012.7 1012.1
18 11.10 штиль 0 4000 м 10/5 300 м
[Cb calv As op]
+24.0 +23.0 94 +32 +32 очень
душно
1013.1 1012.5
21 11.10 штиль 0 4000 м слабый дождь 10/5 300 м
[Cb calv As op]
+24.0 +23.0 94 +32 +32 очень
душно
1011.6 1011.0 0.0
00 12.10 штиль 0 3500 м слабый дождь 10/5 270 м
[Cb calv As op Cs]
+23.9 +23.0 95 +32 +32 очень
душно
1011.5 1010.9 1
06 12.10 штиль 0 2000 м слабый дождь 10/5 200 м
[Cb calv As op]
+24.2 +24.0 99 +33 +35 очень
душно
1012.9 1012.3 58
09 12.10 ЮВ 3 3200 м слабый дождь 10/5 240 м
[Cb calv As op]
+23.8 +23.0 95 +32 +32 очень
душно
1010.6 1010.0 17
12 12.10 ЮВ 4 4000 м в посл. час дождь 10/5 300 м
[Cb calv As op]
+24.0 +23.0 94 +32 +32 очень
душно
1011.3 1010.7 +25.0 18
15 12.10 штиль 0 4000 м 8/4 540 м
[Sc As op]
+24.4 +22.0 86 +31 +31 очень
душно
1013.0 1012.4
18 12.10 штиль 0 3500 м слабый дождь 10/6 270 м
[Cb calv As op]
+24.2 +23.0 93 +32 +32 очень
душно
1012.2 1011.6 1
21 12.10 штиль 0 5000 м {дождь} 9/5 540 м
[Cb calv As op]
+23.8 +23.0 95 +32 +32 очень
душно
1010.5 1009.9 0.8
00 13.10 штиль 0 5000 м {дождь} 8/4 540 м
[Sc As op]
+23.5 +22.0 91 +30 +30 очень
душно
1011.1 1010.5 0.8
03 13.10 штиль 0 3200 м слабый дождь 10/5 200 м
[Cb calv As op]
+23.8 +23.0 95 +32 +33 очень
душно
1013.9 1013.3 +23.6
06 13.10 Ю 4 3200 м слабый дождь 10/5 200 м
[Cb calv As op]
+24.4 +23.0 92 +32 +33 очень
душно
1013.1 1012.5 7
15 13.10 Ю 3 3500 м слабый дождь 10/5 200 м
[Cb calv As op]
+25.2 +24.0 93 +35 +35 очень
душно
1010.8 1010.2 0.6
18 13.10 Ю 3 3500 м гроза, ливневой дождь 10/6 240 м
[Cb calv As op]
+24.4 +23.0 92 +32 +32 очень
душно
1009.2 1008.6 2
21 13.10 Ю 5 3500 м гроза, ливневой дождь 10/6 240 м
[Cb calv As op]
+24.0 +24.0 100 +33 +33 очень
душно
1009.0 1008.4 15
00 14.10 ЮВ 3 4000 м {гроза, дождь} 10/5 540 м
[Cb calv As op]
+24.7 +24.0 96 +34 +34 очень
душно
1010.3 1009.7 19
03 14.10 ЮВ 3 5000 м 9/5 540 м
[Cb calv As op]
+27.8 +25.0 85 +40 +41 очень
душно
1012.5 1011.8 +23.4
06 14.10 штиль 0 4000 м в посл. час дождь 9/5 480 м
[Cb calv As op]
+28.8 +25.0 80 +42 +45 опасность
перегрева
1011.7 1011.0 0.8
09 14.10 штиль 0 5000 м 9/5 540 м
[Cb calv As op]
+30.0 +23.0 66 +40 +42 очень
душно
1009.7 1009.0
12 14.10 штиль 0 5000 м 9/5 540 м
[Cb calv As op]
+28.7 +24.0 76 +40 +40 очень
душно
1010.3 1009.6 +30.5
15 14.10 штиль 0 5000 м 8/4 540 м
[Sc As op]
+26.0 +25.0 94 +37 +37 очень
душно
1011.5 1010.9
21 14.10 штиль 0 4000 м мгла 8/4 540 м
[Sc As op]
+25.4 +24.0 92 +35 +35 очень
душно
1010.7 1010.1
00 15.10 штиль 0 900 м туман 9/4 420 м
[Sc As op]
+24.4 +24.0 98 +34 +34 очень
душно
1012.7 1012.1
03 15.10 СВ 2 3200 м мгла {туман} 4/4 300 м
[Sc]
+26.7 +24.0 85 +37 +42 очень
душно
1014.9 1014.2 +23.9
06 15.10 штиль 0 5000 м {морось} 5/5 540 м
[Sc diur, vesp]
+30.0 +23.0 66 +40 +51 опасность
солнечного
удара
1013.6 1012.9
09 15.10 СЗ 3 5000 м 5/5 540 м
[Sc]
+30.8 +22.0 59 +39 +42 очень
душно
1011.4 1010.7
12 15.10 штиль 0 4000 м мгла 5/5 540 м
[Sc]
+29.2 +22.0 65 +38 +38 очень
душно
1011.6 1010.9 +31.0
15 15.10 штиль 0 4000 м мгла 3/3 540 м
[Sc]
+26.0 +24.0 89 +36 +36 очень
душно
1013.2 1012.5
18 15.10 штиль 0 3500 м мгла ясно +25.3 +23.0 87 +34 +34 очень
душно
1013.9 1012.3
21 15.10 штиль 0 3200 м мгла ясно +24.6 +23.0 91 +33 +33 очень
душно
1011.8 1011.2
00 16.10 штиль 0 1400 м дымка ясно +24.6 +23.0 91 +33 +33 очень
душно
1012.5 1011.9
03 16.10 СЗ 2 5000 м мгла ясно +28.0 +24.0 79 +39 +47 очень
душно
1014.2 1013.5 +23.3
06 16.10 СЗ 3 5000 м ясно +30.7 +21.0 56 +38 +51 опасность
солнечного
удара
1012.9 1012.2
09 16.10 СЗ 5 5000 м мгла 3/3 540 м
[Sc]
+31.3 +20.0 51 +38 +40 очень
душно
1010.7 1010.0
12 16.10 СЗ 2 4000 м мгла ясно +28.8 +21.0 63 +36 +36 очень
душно
1011.2 1010.5 +31.4
15 16.10 штиль 0 4000 м мгла ясно +24.5 +23.0 91 +32 +32 очень
душно
1011.8 1011.2
18 16.10 штиль 0 3500 м мгла ясно +24.0 +22.0 89 +31 +31 очень
душно
1012.3 1011.7
21 16.10 штиль 0 3500 м мгла ясно +23.5 +23.0 97 +31 +31 очень
душно
1011.7 1011.1
03 17.10 штиль 0 5000 м мгла ясно +27.2 +21.0 69 +34 +45 очень
душно
1013.8 1013.2 +21.7
06 17.10 штиль 0 4000 м мгла 9/4 540 м
[Sc Ac trans]
+30.7 +20.0 53 +37 +43 очень
душно
1011.9 1011.2
09 17.10 СЗ 2 4000 м мгла 6/3 540 м
[Sc Ac trans]
+30.7 +17.0 44 +34 +38 очень
душно
1008.7 1008.1
12 17.10 штиль 0 4000 м мгла 6/3 540 м
[Sc Ac trans]
+27.0 +20.0 66 +33 +33 очень
душно
1009.3 1008.6 +31.0
15 17.10 штиль 0 4000 м мгла 6/3 540 м
[Sc Ac trans]
+25.2 +22.0 82 +32 +32 очень
душно
1011.1 1010.5
18 17.10 штиль 0 3200 м мгла 4/4 540 м
[Sc]
+23.8 +22.0 90 +31 +31 очень
душно
1010.8 1010.1

 

Местоположение метеостанции Chittagong (Бангладеш): широта 22.27 долгота 91.82 высота над уровнем моря 6 м.

В архиве по умолчанию представлена погода в Chittagong за последнюю неделю. Архивные данные за месяц целиком и за предыдущие месяцы, начиная с января 2011 года, Вы можете получить, выбрав интересующий диапазон дат из раскрывающегося списка и нажав кнопку "Ввод!".


*Определитесь, кто Вы:
робот инопланетянин человек

Внимание! Время в таблицах - всемирное. Для получения местного времени необходимо прибавить поправку, которая в Chittagong равна 6.5 ч.

Смотрите также архив погоды в соседних городах и на ближайших метеорологических станциях:

Погода в Sitakundu (Бангладеш) (37 км)
Погода в Sandwip (Бангладеш) (46 км)
Погода в Rangamati (Бангладеш) (49 км)
Погода в Kutubdia (Бангладеш) (50 км)
Погода в Hatia (Бангладеш) (76 км)
Погода в Feni (Бангладеш) (94 км)
Погода в Coxs Bazar (Бангладеш) (94 км)
Погода в Maijdicourt (Бангладеш) (100 км)
Погода в Bhola (Бангладеш) (129 км)
Погода в Comilla (Бангладеш) (145 км)

Пояснения к столбцам:

Ветер - указаны скорость ветра в м/с - средняя за 10 мин, порывы в срок и между сроками (в фигурных скобках) и направление, откуда дует ветер: С - северный, СВ - северо-восточный, В - восточный, ЮВ - юго-восточный, Ю - южный, ЮЗ - юго-западный, З - западный, СЗ - северо-западный.
Видимость - горизонтальная дальность видимости в метрах или километрах. При видимости от 1 до 10 км при отсутствии осадков обычно наблюдается дымка, при ухудшении видимости до 1 км и менее - туман. В сухую погоду видимость может ухудшаться дымом, пылью или мглою.
Явления - указаны атмосферные явления, наблюдавшиеся в срок или в последний час перед сроком; фигурными скобками обозначены явления, наблюдавшиеся между сроками (за 1-3 часа до срока); квадратными скобками обозначены град или гололедные отложения с указанием их диаметра в мм.
Облачность - указаны через наклонную черту общая и нижняя облачность в баллах и высота нижней границы облаков в метрах; квадратными скобками обозначены формы облаков: Ci - перистые, Cs - перисто-слоистые, Cc - перисто-кучевые, Ac - высококучевые, As - высокослоистые, Sc - слоисто-кучевые, Ns - слоисто-дождевые, Cu - кучевые, Cb - кучево-дождевые. Подробнее классификацию облаков см. в Атласе облаков (PDF).
T - Температура воздуха - температура, измеренная на высоте 2 м над землей.
Td - Температура точки росы - температура, при понижении до которой содержащийся в воздухе водяной пар достигнет насыщения.
f - Относительная влажность воздуха - влажноcть воздуха, измеренная на высоте 2 м над землей.
Te - Эффективная температура - температура, которую ощущает одетый по сезону человек в тени. Характеристика душности погоды. При расчете учитывается влияние влажности воздуха и скорости ветра на теплоощущения человека.
Tes - Эффективная температура на солнце - температура, которую ощущает человек, с поправкой на солнечный нагрев. Характеристика знойности погоды. Зависит от высоты солнца над горизонтом, облачности и скорости ветра. Ночью, в пасмурную погоду, а также при ветре 12 м/с и более поправка равна нулю.
P - Атмосферное давление - приведенное к уровню моря атмосферное давление.
Po - Атмосферное давление - измеренное на уровне метеостанции атмосферное давление.
Tmin - Минимальная температура - минимум температуры воздуха на высоте 2 м над землей.
Tmax - Максимальная температура - максимум температуры воздуха на высоте 2 м над землей.
R - Количество осадков - Количество выпавших осадков за период времени, мм. При наведении курсора мыши на число - период времени, за который выпало указанное количество осадков.
R24 - Количество осадков - Количество выпавших осадков за 24 часа, мм.
S - Снежный покров - Высота снежного покрова, см. При наведении курсора мыши на число - состояние снежного покрова и степень покрытия местности в баллах.